This is the latest recevied weather packets stored in our database for station/object AG7BI. If no packets are shown the sender has not sent any weather packets the latest 10 day(s).
| Time | Temp. | Humidity | Pressure | Rain* | Wind** | Luminosity | Snow |
|---|---|---|---|---|---|---|---|
| 1777823452 | 15.56° C | 64% | 1015.2 hPa | 0 mm | - | - | - |
| 1777823152 | 15.56° C | 66% | 1014.9 hPa | 0 mm | - | - | - |
| 1777822852 | 15.56° C | 67% | 1015 hPa | 0 mm | - | - | - |
| 1777822552 | 15.56° C | 64% | 1014.8 hPa | 0 mm | - | - | - |
| 1777822252 | 15.56° C | 64% | 1014.9 hPa | 0 mm | - | - | - |
| 1777821952 | 15.56° C | 64% | 1014.8 hPa | 0 mm | - | - | - |
| 1777821652 | 15° C | 65% | 1015.2 hPa | 0 mm | - | - | - |
| 1777821352 | 15° C | 65% | 1015.1 hPa | 0 mm | - | - | - |
| 1777821052 | 15° C | 67% | 1015.2 hPa | 0 mm | - | - | - |
| 1777820752 | 15° C | 66% | 1015.1 hPa | 0 mm | - | - | - |
| 1777820452 | 15° C | 65% | 1015.2 hPa | 0 mm | - | - | - |
| 1777820152 | 15° C | 65% | 1015.3 hPa | 0 mm | - | - | - |
| 1777819852 | 15° C | 68% | 1015.2 hPa | 0 mm | - | - | - |
| 1777819552 | 14.44° C | 65% | 1015.1 hPa | 0 mm | - | - | - |
| 1777819252 | 14.44° C | 67% | 1015 hPa | 0 mm | - | - | - |
| 1777818952 | 14.44° C | 66% | 1015.2 hPa | 0 mm | - | - | - |
| 1777818652 | 14.44° C | 66% | 1015.1 hPa | 0 mm | - | - | - |
| 1777818352 | 14.44° C | 67% | 1014.9 hPa | 0 mm | - | - | - |
| 1777818052 | 14.44° C | 68% | 1014.9 hPa | 0 mm | - | - | - |
| 1777817752 | 14.44° C | 67% | 1015.1 hPa | 0 mm | - | - | - |
| 1777817452 | 13.89° C | 68% | 1014.9 hPa | 0 mm | - | - | - |
| 1777817152 | 13.89° C | 67% | 1015 hPa | 0 mm | - | - | - |
| 1777816852 | 13.89° C | 68% | 1014.8 hPa | 0 mm | - | - | - |
| 1777816552 | 13.89° C | 67% | 1014.8 hPa | 0 mm | - | - | - |
| 1777816252 | 13.89° C | 68% | 1014.7 hPa | 0 mm | - | - | - |
* Rain latest hour (hover to see other rain measurements)
** Current wind speed in m/s (hover to see current wind gust speed)